User: anonymous   Login
Location: Unspecified
(0.0000°N, 0.0000°E)
Time: 10:46:23
(UTC+00:00)
Language:

MERIDIAN 1 - Orbit

View from above orbital plane
View from above orbital plane
View from above satellite
View from above satellite

Ground track
Ground track

The orbit data is extracted from the following two-line orbital elements,

1 29668U 06061A   17202.17911299 -.00000218 +00000-0 +00000-0 0  9997
2 29668 064.8629 090.0649 7199910 239.4524 350.6364 02.00610496077460
Epoch (UTC): 21 July 2017 04:17:55
Eccentricity: 0.7199910
inclination: 64.8629°
perigee height: 1058 km
apogee height: 39298 km
right ascension of ascending node: 90.0649°
argument of perigee: 239.4524°
revolutions per day: 2.00610496
mean anomaly at epoch: 350.6364°
orbit number at epoch: 7746

The dashed part of the orbit path shows where the satellite is in the earth's shadow,  

DLR